Weather History for Camp Pendleton, CA

Change the Weather History Date:

Friday, September 13, 2013

  Actual Average Record
Temperature  
Mean Temperature 68 °F -  
Max Temperature 81 °F 78 °F 88 °F (2000)
Min Temperature 55 °F 55 °F 51 °F (2005)
Cooling Degree Days 2    
Growing Degree Days 18 (Base 50)    
Moisture  
Dew Point 56 °F    
Average Humidity 70    
Maximum Humidity 87    
Minimum Humidity 47    
Precipitation  
Precipitation 0.00 in - - ()
Sea Level Pressure  
Sea Level Pressure 29.76 in    
Wind  
Wind Speed 2 mph (SSW)    
Max Wind Speed 12 mph    
Max Gust Speed 18 mph    
Visibility 9 miles    
Events      
Averages and records for this station are not official NWS values.
T = Trace of Precipitation, MM = Missing Value Source: NWS Daily Summary

Daily Weather History Graph

Daily Weather History Graph

Search for Another Location

Airport:

Trip Planner

Search our weather history database for the weather conditions in past years. The results will help you decide how hot, cold, wet, or windy it might be!

Date:

Astronomy

Sep. 13, 2013 Rise Set
Actual Time 6:31 AM PDT 6:58 PM PDT
Civil Twilight 6:06 AM PDT 7:22 PM PDT
Nautical Twilight 5:37 AM PDT 7:52 PM PDT
Astronomical Twilight 5:07 AM PDT 8:21 PM PDT
Moon 2:39 PM PDT (9/13) 12:18 AM PDT (9/13)
Length of Visible Light 13h 15m
Length of Day
12h 26m
Waxing Gibbous, 62% of the Moon is Illuminated
Sep 13
Waxing Gibbous
Sep 19
Full
Sep 26
Last Quarter
Oct 4
New
Oct 11
First Quarter

Hourly Weather History & Observations

Time (PDT) Temp. Heat Index Dew Point Humidity Pressure Visibility Wind Dir Wind Speed Gust Speed Precip Events Conditions
12:54 AM 61.0 °F - 53.1 °F 75% 29.84 in 10.0 mi Calm Calm - N/A   Clear
1:54 AM 60.1 °F - 53.1 °F 78% 29.83 in 10.0 mi Calm Calm - N/A   Clear
2:54 AM 57.9 °F - 51.1 °F 78% 29.81 in 9.0 mi Calm Calm - N/A   Partly Cloudy
3:10 AM 57.2 °F - 51.8 °F 82% 29.81 in 10.0 mi Calm Calm - N/A   Mostly Cloudy
3:18 AM 57.2 °F - 51.8 °F 82% 29.81 in 10.0 mi Calm Calm - N/A   Scattered Clouds
3:54 AM 59.0 °F - 52.0 °F 78% 29.81 in 10.0 mi NE 3.5 mph - N/A   Clear
4:54 AM 57.0 °F - 50.0 °F 77% 29.81 in 10.0 mi Calm Calm - N/A   Scattered Clouds
5:14 AM 55.4 °F - 48.2 °F 77% 29.81 in 7.0 mi Calm Calm - N/A   Mostly Cloudy
5:54 AM 57.9 °F - 51.1 °F 78% 29.81 in 10.0 mi Calm Calm - N/A   Overcast
6:54 AM 60.1 °F - 52.0 °F 75% 29.82 in 1.2 mi Calm Calm - N/A   Haze
7:54 AM 61.0 °F - 55.9 °F 83% 29.82 in 0.2 mi Calm Calm - N/A   Haze
8:54 AM 63.0 °F - 59.0 °F 87% 29.81 in 3.0 mi Calm Calm - N/A   Mostly Cloudy
9:19 AM 64.4 °F - 59.0 °F 83% 29.81 in 3.0 mi Calm Calm - N/A   Haze
9:54 AM 71.1 °F - 60.1 °F 68% 29.80 in 10.0 mi Calm Calm - N/A   Partly Cloudy
10:54 AM 78.1 °F - 59.0 °F 52% 29.78 in 10.0 mi SSW 9.2 mph - N/A   Partly Cloudy
11:54 AM 78.1 °F - 57.9 °F 50% 29.77 in 10.0 mi SW 9.2 mph - N/A   Partly Cloudy
12:54 PM 80.1 °F 80.6 °F 57.9 °F 47% 29.74 in 10.0 mi SW 8.1 mph 18.4 mph N/A   Partly Cloudy
1:54 PM 79.0 °F - 57.0 °F 47% 29.72 in 10.0 mi SSW 11.5 mph - N/A   Clear
2:54 PM 80.1 °F 80.7 °F 59.0 °F 48% 29.70 in 10.0 mi SSW 10.4 mph - N/A   Clear
3:54 PM 80.1 °F 80.7 °F 59.0 °F 48% 29.68 in 10.0 mi SW 9.2 mph - N/A   Clear
4:54 PM 78.1 °F - 59.0 °F 52% 29.67 in 10.0 mi SW 5.8 mph - N/A   Clear
5:54 PM 73.9 °F - 61.0 °F 64% 29.68 in 10.0 mi SSW 9.2 mph - N/A   Clear
6:54 PM 72.0 °F - 62.1 °F 71% 29.68 in 10.0 mi South 3.5 mph - N/A   Clear
7:54 PM 70.0 °F - 61.0 °F 73% 29.69 in 10.0 mi Calm Calm - N/A   Clear
8:54 PM 66.9 °F - 59.0 °F 76% 29.70 in 10.0 mi Calm Calm - N/A   Clear
9:54 PM 64.9 °F - 55.9 °F 73% 29.70 in 10.0 mi Calm Calm - N/A   Clear
10:54 PM 61.0 °F - 54.0 °F 78% 29.71 in 10.0 mi Calm Calm - N/A   Clear
11:54 PM 61.0 °F - 54.0 °F 78% 29.71 in 10.0 mi Calm Calm - N/A   Clear